Simultaneous Nadir Overpasses (SNOs) Predictions

Prediction of SNOs between GOES-14 and AQUA Satellite Orbit:

Table of predicted SNOs for the next 14.0 days since TLE Epoch: 10/5/2018
Index Date Time (GOES-14) GOES-14 Lat,Lon AQUA Lat,Lon Distance(km) Time Diff (sec)
1 10/06/2018 08:14:48 0.28,-104.10 -0.57,-100.23 440.44 80
2 10/06/2018 20:36:13 -0.26,-104.12 -0.53,-105.42 148.08 80
3 10/08/2018 20:26:42 -0.26,-104.12 0.12,-102.47 188.30 80
4 10/09/2018 08:47:57 0.24,-104.12 0.97,-107.63 398.18 80
5 10/11/2018 08:35:45 0.24,-104.12 0.38,-104.67 61.97 80
6 10/13/2018 08:20:54 0.25,-104.12 -0.28,-101.72 274.20 80
7 10/13/2018 20:42:19 -0.22,-104.11 -0.81,-106.91 318.31 80
8 10/15/2018 20:32:47 -0.22,-104.12 -0.21,-103.95 18.42 80
9 10/17/2018 20:20:36 -0.22,-104.12 0.45,-101.00 355.07 80
10 10/18/2018 08:41:51 0.20,-104.16 0.65,-106.16 227.98 80




NCC Satellite Simultaneous Nadir Overpasses (SNOs) Prediction Service
